EUTELSAT 115 WEST B

Last updated on Tue Sep 22 2026 00:03:13 GMT+0000 (Coordinated Universal Time)

1 40425U 15010B 26264.48993083 -.00000029 00000+0 00000+0 0 9996 2 40425 0.0432 356.0726 0000212 305.2204 120.5553 1.00270667 42349
UTC large
Height (km)
Speed (km/s)
/
Latitude / Longitude
Inclination (degrees)
Orbital Period (minutes)
Azimuth
Elevation
Range (km)
Doppler Factor

Next 0 passes for location: London (51.5072 / 0.1276)

No passes found over London.
EUTELSAT 115 WEST B